This is the latest recevied weather packets stored in our database for station/object MB7UIK. If no packets are shown the sender has not sent any weather packets the latest 1 day(s).
| Time | Temp. | Humidity | Pressure | Rain* | Wind** | Luminosity | Snow |
|---|---|---|---|---|---|---|---|
| 1777970985 | 13.33° C | 100% | 1012.1 hPa | 0 mm | 0.89 m/s, 16° | - | - |
| 1777970925 | 13.33° C | 100% | 1012.1 hPa | 0 mm | 2.68 m/s, 321° | - | - |
| 1777970865 | 13.33° C | 100% | 1012.1 hPa | 0 mm | 2.24 m/s, 53° | - | - |
| 1777970831 | 13.33° C | 100% | 1012.1 hPa | 0 mm | 2.24 m/s, 53° | - | - |
| 1777970805 | 13.33° C | 100% | 1012.1 hPa | 0 mm | 1.79 m/s, 337° | - | - |
| 1777970745 | 13.33° C | 100% | 1012.1 hPa | 0 mm | 2.24 m/s, 19° | - | - |
| 1777970685 | 13.33° C | 100% | 1012.1 hPa | 0 mm | 1.79 m/s, 22° | - | - |
| 1777970625 | 13.33° C | 100% | 1012.2 hPa | 0 mm | 3.58 m/s, 360° | - | - |
| 1777970564 | 13.33° C | 100% | 1012.1 hPa | 0 mm | 2.24 m/s, 12° | - | - |
| 1777970532 | 13.33° C | 100% | 1012.1 hPa | 0 mm | 2.24 m/s, 12° | - | - |
| 1777970516 | 13.33° C | 100% | 1012.2 hPa | 0 mm | 1.79 m/s, 15° | - | - |
| 1777970444 | 13.33° C | 100% | 1012.1 hPa | 0 mm | 2.68 m/s, 5° | - | - |
| 1777970384 | 13.33° C | 100% | 1012.2 hPa | 0 mm | 2.24 m/s, 355° | - | - |
| 1777970325 | 13.33° C | 100% | 1012.2 hPa | 0 mm | 4.47 m/s, 360° | - | - |
| 1777970265 | 13.33° C | 100% | 1012.3 hPa | 0 mm | 1.79 m/s, 347° | - | - |
| 1777970231 | 13.33° C | 100% | 1012.3 hPa | 0 mm | 1.79 m/s, 347° | - | - |
| 1777970205 | 13.33° C | 100% | 1012.3 hPa | 0 mm | 2.68 m/s, 17° | - | - |
| 1777970145 | 13.33° C | 100% | 1012.2 hPa | 0 mm | 1.34 m/s, 39° | - | - |
| 1777970085 | 13.33° C | 100% | 1012.3 hPa | 0 mm | 1.79 m/s, 331° | - | - |
| 1777970025 | 13.33° C | 100% | 1012.3 hPa | 0 mm | 1.34 m/s, 26° | - | - |
| 1777969965 | 13.33° C | 100% | 1012.2 hPa | 0 mm | 2.24 m/s, 18° | - | - |
| 1777969933 | 13.33° C | 100% | 1012.2 hPa | 0 mm | 2.24 m/s, 18° | - | - |
| 1777969905 | 13.33° C | 100% | 1012.2 hPa | 0 mm | 2.24 m/s, 9° | - | - |
| 1777969845 | 13.33° C | 100% | 1012.2 hPa | 0 mm | 1.34 m/s, 329° | - | - |
| 1777969785 | 13.33° C | 100% | 1012.2 hPa | 0 mm | 1.34 m/s, 5° | - | - |
* Rain latest hour (hover to see other rain measurements)
** Current wind speed in m/s (hover to see current wind gust speed)